GSAT0203 (GALILEO 7) (40544 NORAD) Tracking and Keplerian Element Data

This shows tracking and keplerian element data for the satellite.

Feedback or suggestion? Click here.




ElementValue
Catalog40544
NameGSAT0203 (GALILEO 7)
Epoch Orbit3966
Epoch Day261.44369169
Epoch Year2021
RAAN28.8161
Inclination56.6801
Eccentricity0.000323
Argument of Perigee217.4099
Mean Anonmoly142.5568
Mean Motion1.70474992
Decay Rate-9.4E-07
L11 40544U 15017A 21261.44369169 -.00000094 00000-0 00000-0 0 9999
L22 40544 56.6801 28.8161 0003230 217.4099 142.5568 1.70474992 39669

Live tracking and technical data element details for GSAT0203 (GALILEO 7) (NORAD 40544). GSAT0203 (GALILEO 7) can be tracked NOW for your location showing map with azimuth and elevation plus other details from your city location.

Track the satellite on the map from your city or location and see movement details for azimuth, elevation, latitude, longitude, range, height, and movement on the map or in text.







IsCatalogInMostPopularTable: catalog: 40544, numindb: 538
Update: records affected: 1



GetName: 40544 GSAT0203 (GALILEO 7)

Hit Count: updated at: Fri, 24 Sep 2021 19:11:35 GMT